Location: *
(51.4660°N, 0.3360°W)
Time: 12:55:22
(UTC+00:00)

SPOT 5 - Pass Details

Date: 19 September 2019
Orbit: 624 x 814 km, 98.3° (Epoch: 18 October)

Event Time Altitude Azimuth Distance (km) Brightness Sun altitude
Exits shadow 20:18:58 24° 63° (ENE) 1,477 4.2 -20.3°
Maximum altitude 20:19:15 24° 58° (ENE) 1,475 4.2 -20.4°
Drops below altitude 10° 20:23:14 10° 6° (N) 2,290 5.8 -20.9°
Sets 20:25:57 0° 353° (N) 3,252 6.8 -21.3°
